TimeEDT,TemperatureF,Dew PointF,Humidity,Sea Level PressureIn,VisibilityMPH,Wind Direction,Wind SpeedMPH,Gust SpeedMPH,PrecipitationIn,Events,Conditions,WindDirDegrees,DateUTC
12:54 AM,46.9,37.0,68,29.37,10.0,WSW,23.0,36.8,N/A,,Overcast,250,2012-10-30 04:54:00
1:54 AM,48.0,36.0,63,29.37,10.0,WSW,20.7,31.1,N/A,,Overcast,250,2012-10-30 05:54:00
2:54 AM,48.0,35.1,61,29.37,10.0,WSW,24.2,29.9,N/A,,Overcast,250,2012-10-30 06:54:00
3:54 AM,48.0,34.0,58,29.38,10.0,WSW,16.1,28.8,N/A,,Overcast,250,2012-10-30 07:54:00
4:54 AM,48.0,35.1,61,29.40,10.0,SW,13.8,23.0,N/A,,Overcast,230,2012-10-30 08:54:00
5:54 AM,46.9,35.1,63,29.41,10.0,WSW,16.1,-,N/A,,Overcast,240,2012-10-30 09:54:00
6:54 AM,46.9,35.1,63,29.42,10.0,WSW,13.8,-,N/A,,Overcast,240,2012-10-30 10:54:00
7:54 AM,48.0,35.1,61,29.45,10.0,WSW,12.7,-,N/A,,Overcast,240,2012-10-30 11:54:00
8:54 AM,50.0,34.0,54,29.48,10.0,WSW,16.1,23.0,N/A,,Overcast,250,2012-10-30 12:54:00
9:54 AM,50.0,34.0,54,29.49,10.0,West,15.0,24.2,N/A,,Partly Cloudy,260,2012-10-30 13:54:00
10:04 AM,51.8,33.8,50,29.51,10.0,WSW,15.0,23.0,N/A,,Mostly Cloudy,250,2012-10-30 14:04:00
10:54 AM,52.0,33.1,49,29.50,10.0,WSW,17.3,-,N/A,,Mostly Cloudy,240,2012-10-30 14:54:00
11:54 AM,55.0,33.1,43,29.49,10.0,WSW,19.6,25.3,N/A,,Partly Cloudy,240,2012-10-30 15:54:00
12:54 PM,55.9,33.1,42,29.49,10.0,West,18.4,28.8,N/A,,Scattered Clouds,260,2012-10-30 16:54:00
1:54 PM,57.9,34.0,41,29.47,10.0,WSW,18.4,-,N/A,,Scattered Clouds,240,2012-10-30 17:54:00
2:54 PM,55.0,35.1,47,29.47,10.0,WSW,19.6,23.0,N/A,,Mostly Cloudy,250,2012-10-30 18:54:00
3:54 PM,54.0,35.1,49,29.49,10.0,West,12.7,-,N/A,,Overcast,270,2012-10-30 19:54:00
4:54 PM,51.1,37.9,61,29.51,10.0,WNW,9.2,-,N/A,,Overcast,290,2012-10-30 20:54:00
5:54 PM,50.0,39.0,66,29.53,10.0,WSW,5.8,-,N/A,,Overcast,250,2012-10-30 21:54:00
6:54 PM,48.9,39.9,71,29.56,10.0,SSW,3.5,-,N/A,,Partly Cloudy,210,2012-10-30 22:54:00
7:54 PM,48.0,39.9,74,29.58,10.0,West,5.8,-,N/A,,Mostly Cloudy,260,2012-10-30 23:54:00
8:54 PM,50.0,41.0,71,29.60,10.0,WNW,3.5,-,N/A,,Mostly Cloudy,300,2012-10-31 00:54:00
9:54 PM,48.0,42.1,80,29.63,10.0,Calm,Calm,-,N/A,,Overcast,0,2012-10-31 01:54:00
10:54 PM,48.9,39.9,71,29.64,10.0,WSW,6.9,-,N/A,,Overcast,240,2012-10-31 02:54:00
11:54 PM,48.9,39.0,69,29.64,10.0,WSW,8.1,-,N/A,,Mostly Cloudy,240,2012-10-31 03:54:00